Date String (YYYY-MM-DD hh:mm:ss) UTC,Instrument flags,Ambient pressure (hPa),Sample flow (lpm),Bypass flow (lpm),Sample temperature (°C),Ambient temperature (°C),ASC tube jacket temperature (°C),LED temperature (°C),Box temperature (°C),Sample RH (%),Span deviation,Mass concentration (μg/m³),Mass concentration (μg/m³),Mass concentration (μg/m³)
DateTimeUTC,F1_M11,P_M11,Q1_M11,Q2_M11,T1_M11,T2_M11,T3_M11,T4_M11,T5_M11,U1_M11,ZSPAN_M11,X0_M11,X2_M11,X1_M11
2022-12-04 17:00:00,,0826.8,5.00,0.00,23.4,22.4,00.0,32.2,25.3,14.0,0000.0,0017.61,0005.63,0004.16
2022-12-04 17:01:00,,0826.8,5.00,0.00,23.4,22.4,00.0,32.2,25.3,14.0,0000.0,0017.69,0005.61,0004.19
2022-12-04 17:02:00,,0826.8,4.99,0.00,23.5,22.4,00.0,32.2,25.3,14.4,0000.0,0017.38,0005.61,0004.21
2022-12-04 17:03:00,,0826.8,5.00,0.00,23.5,22.4,00.0,32.3,25.4,14.5,0000.0,0017.76,0005.63,0004.22
2022-12-04 17:04:00,,0826.7,5.00,0.00,23.5,22.4,00.0,32.3,25.4,14.5,0000.0,0017.44,0005.61,0004.25
2022-12-04 17:05:00,,0826.8,5.00,0.00,23.5,22.4,00.0,32.3,25.4,14.4,0000.0,0016.93,0005.63,0004.28
2022-12-04 17:06:00,,0826.8,5.00,0.00,23.5,22.4,00.0,32.3,25.5,14.2,0000.0,0016.63,0005.72,0004.31
2022-12-04 17:07:00,,0826.8,5.00,0.00,23.5,22.4,00.0,32.3,25.4,14.0,0000.0,0015.64,0005.76,0004.34
2022-12-04 17:08:00,,0826.8,5.00,0.00,23.5,22.4,00.0,32.3,25.4,13.9,0000.0,0014.71,0005.76,0004.33
2022-12-04 17:09:00,,0826.8,5.00,0.00,23.5,22.4,00.0,32.3,25.4,14.2,0000.0,0014.84,0005.71,0004.30
2022-12-04 17:10:00,,0826.8,5.00,0.00,23.5,22.5,00.0,32.3,25.4,14.4,0000.0,0015.07,0005.71,0004.27
2022-12-04 17:11:00,,0826.7,5.00,0.00,23.6,22.5,00.0,32.3,25.4,14.6,0000.0,0015.51,0005.71,0004.23
2022-12-04 17:12:00,,0826.7,5.00,0.00,23.6,22.5,00.0,32.4,25.4,14.4,0000.0,0016.37,0005.71,0004.20
2022-12-04 17:13:00,,0826.6,5.00,0.00,23.6,22.5,00.0,32.4,25.5,14.4,0000.0,0015.90,0005.67,0004.17
2022-12-04 17:14:00,,0826.5,5.01,0.00,23.6,22.5,00.0,32.4,25.5,14.5,0000.0,0015.36,0005.61,0004.14
2022-12-04 17:15:00,,0826.5,5.00,0.00,23.6,22.5,00.0,32.4,25.5,14.5,0000.0,0015.96,0005.55,0004.10
2022-12-04 17:16:00,,0826.5,5.00,0.00,23.6,22.6,00.0,32.4,25.5,14.2,0000.0,0015.71,0005.47,0004.07
2022-12-04 17:17:00,,0826.6,5.00,0.00,23.6,22.6,00.0,32.4,25.5,14.8,0000.0,0015.64,0005.43,0004.03
2022-12-04 17:18:00,,0826.7,5.01,0.00,23.7,22.6,00.0,32.4,25.5,15.1,0000.0,0015.87,0005.37,0003.98
2022-12-04 17:19:00,,0826.7,5.00,0.00,23.7,22.6,00.0,32.4,25.5,14.8,0000.0,0015.89,0005.32,0003.96
2022-12-04 17:20:00,,0826.6,5.00,0.00,23.7,22.6,00.0,32.5,25.5,14.5,0000.0,0015.41,0005.33,0003.96
2022-12-04 17:21:00,,0826.6,5.00,0.00,23.7,22.6,00.0,32.5,25.5,14.6,0000.0,0015.74,0005.32,0003.97
2022-12-04 17:22:00,,0826.5,5.00,0.00,23.7,22.6,00.0,32.5,25.5,14.3,0000.0,0014.62,0005.30,0003.99
2022-12-04 17:23:00,,0826.5,5.00,0.00,23.7,22.6,00.0,32.5,25.5,14.4,0000.0,0013.54,0005.30,0004.02
2022-12-04 17:24:00,,0826.5,5.00,0.00,23.7,22.7,00.0,32.5,25.5,14.2,0000.0,0013.29,0005.29,0004.03
2022-12-04 17:25:00,,0826.5,5.00,0.00,23.7,22.7,00.0,32.5,25.5,14.3,0000.0,0012.96,0005.26,0004.05
2022-12-04 17:26:00,,0826.5,5.00,0.00,23.8,22.7,00.0,32.5,25.5,14.2,0000.0,0012.60,0005.27,0004.07
2022-12-04 17:27:00,,0826.4,5.00,0.00,23.8,22.8,00.0,32.6,25.6,14.0,0000.0,0014.37,0005.32,0004.08
2022-12-04 17:28:00,,0826.3,5.00,0.00,23.8,22.8,00.0,32.6,25.6,13.9,0000.0,0014.87,0005.31,0004.09
2022-12-04 17:29:00,,0826.2,4.99,0.00,23.8,22.8,00.0,32.6,25.6,14.1,0000.0,0014.88,0005.32,0004.10
2022-12-04 17:30:00,,0826.2,4.99,0.00,23.8,22.9,00.0,32.6,25.6,14.1,0000.0,0015.23,0005.40,0004.13
2022-12-04 17:31:00,,0826.2,5.00,0.00,23.9,22.9,00.0,32.6,25.7,14.1,0000.0,0015.39,0005.38,0004.15
2022-12-04 17:32:00,,0826.3,5.01,0.00,23.9,22.9,00.0,32.6,25.7,14.2,0000.0,0015.20,0005.39,0004.15
2022-12-04 17:33:00,,0826.2,5.01,0.00,23.9,22.9,00.0,32.7,25.7,14.3,0000.0,0015.08,0005.42,0004.15
2022-12-04 17:34:00,,0826.1,5.01,0.00,23.9,23.0,00.0,32.7,25.7,14.3,0000.0,0016.44,0005.50,0004.14
2022-12-04 17:35:00,,0826.2,4.99,0.00,23.9,23.0,00.0,32.7,25.8,14.4,0000.0,0017.51,0005.57,0004.14
2022-12-04 17:36:00,,0826.2,4.99,0.00,24.0,23.0,00.0,32.7,25.9,14.5,0000.0,0017.89,0005.59,0004.15
2022-12-04 17:37:00,,0826.0,5.00,0.00,24.0,23.1,00.0,32.7,25.9,14.3,0000.0,0018.06,0005.61,0004.14
2022-12-04 17:38:00,,0826.0,5.00,0.00,24.0,23.1,00.0,32.8,25.9,13.8,0000.0,0016.41,0005.52,0004.11
2022-12-04 17:39:00,,0825.9,5.00,0.00,24.0,23.1,00.0,32.8,26.0,14.2,0000.0,0015.91,0005.50,0004.12
2022-12-04 17:40:00,,0825.9,5.00,0.00,24.0,23.1,00.0,32.8,26.0,14.5,0000.0,0016.45,0005.60,0004.21
2022-12-04 17:41:00,,0826.0,5.00,0.00,24.1,23.2,00.0,32.8,26.0,14.4,0000.0,0015.87,0005.64,0004.31
2022-12-04 17:42:00,,0826.0,5.00,0.00,24.1,23.2,00.0,32.8,26.0,14.4,0000.0,0015.82,0005.71,0004.39
2022-12-04 17:43:00,,0826.0,5.00,0.00,24.1,23.2,00.0,32.9,26.0,14.5,0000.0,0016.37,0005.77,0004.46
2022-12-04 17:44:00,,0826.0,5.00,0.00,24.1,23.2,00.0,32.9,26.0,14.2,0000.0,0016.28,0005.79,0004.53
2022-12-04 17:45:00,,0825.9,5.01,0.00,24.2,23.2,00.0,32.9,26.0,14.2,0000.0,0015.64,0005.83,0004.60
2022-12-04 17:46:00,,0825.9,5.00,0.00,24.2,23.2,00.0,32.9,26.1,14.0,0000.0,0015.03,0005.81,0004.67
2022-12-04 17:47:00,,0825.8,5.00,0.00,24.2,23.2,00.0,32.9,26.1,14.2,0000.0,0014.80,0005.88,0004.74
2022-12-04 17:48:00,,0826.0,5.00,0.00,24.2,23.2,00.0,33.0,26.1,14.6,0000.0,0014.85,0005.99,0004.86
2022-12-04 17:49:00,,0825.7,5.00,0.00,24.2,23.2,00.0,33.0,26.1,14.8,0000.0,0015.21,0006.20,0005.02
2022-12-04 17:50:00,,0825.7,5.00,0.00,24.2,23.3,00.0,33.0,26.1,14.8,0000.0,0015.39,0006.35,0005.16
2022-12-04 17:51:00,,0825.7,4.99,0.00,24.3,23.3,00.0,33.0,26.2,14.6,0000.0,0015.54,0006.49,0005.23
2022-12-04 17:52:00,,0825.7,5.00,0.00,24.3,23.2,00.0,33.0,26.3,14.5,0000.0,0016.36,0006.60,0005.29
2022-12-04 17:53:00,,0825.7,4.99,0.00,24.3,23.2,00.0,33.1,26.3,14.4,0000.0,0016.22,0006.68,0005.36
2022-12-04 17:54:00,,0825.6,5.00,0.00,24.3,23.3,00.0,33.1,26.3,14.5,0000.0,0015.31,0006.77,0005.46
2022-12-04 17:55:00,,0825.6,5.00,0.00,24.3,23.3,00.0,33.1,26.2,14.5,0000.0,0015.74,0006.92,0005.56
2022-12-04 17:56:00,,0825.5,5.00,0.00,24.3,23.3,00.0,33.1,26.2,14.3,0000.0,0016.60,0007.00,0005.66
2022-12-04 17:57:00,,0825.5,5.00,0.00,24.3,23.3,00.0,33.1,26.3,14.3,0000.0,0016.48,0007.09,0005.77
2022-12-04 17:58:00,,0825.5,5.01,0.00,24.3,23.3,00.0,33.1,26.2,14.3,0000.0,0016.57,0007.25,0005.88
2022-12-04 17:59:00,,0825.4,5.00,0.00,24.3,23.3,00.0,33.1,26.2,14.6,0000.0,0016.48,0007.31,0005.94
